Location: �perlecques
(50.8057°N, 2.1521°E)
Time: 03:33:36
(UTC+00:00)

SPROUT - Visible Passes

Search period start: 29 March 2023 00:00
Search period end: 08 April 2023 00:00
Orbit: 564 x 578 km, 98.0° (Epoch: 28 March)

Date Brightness Start Highest point End Pass type
(mag) Time Alt. Az. Time Alt. Az. Time Alt. Az.
29 Mar ? 00:29:07 16° N 00:29:07 16° N 00:30:04 10° N visible
30 Mar ? 00:31:18 17° N 00:31:18 17° N 00:32:21 10° N visible
31 Mar ? 00:33:25 18° N 00:33:25 18° N 00:34:34 10° N visible
01 Apr ? 00:35:26 19° N 00:35:26 19° N 00:36:43 10° N visible
02 Apr ? 00:37:25 20° N 00:37:25 20° N 00:38:48 10° N visible
03 Apr ? 00:39:20 21° N 00:39:20 21° N 00:40:49 10° N visible
04 Apr ? 00:41:11 22° N 00:41:11 22° N 00:42:46 10° N visible
05 Apr ? 00:42:58 23° N 00:42:58 23° N 00:44:40 10° N visible
06 Apr ? 00:44:40 25° N 00:44:40 25° N 00:46:29 10° N visible
07 Apr ? 00:46:20 26° N 00:46:20 26° N 00:48:14 10° N visible
